EUTELSAT HOTBIRD 13F

Last updated on Sun Jun 21 2026 00:03:09 GMT+0000 (Coordinated Universal Time)

1 54048U 22134A 26171.18068367 .00000082 00000+0 00000+0 0 9997 2 54048 0.0471 295.1519 0001947 64.5697 346.7332 1.00273367 13400
UTC large
Height (km)
Speed (km/s)
/
Latitude / Longitude
Inclination (degrees)
Orbital Period (minutes)
Azimuth
Elevation
Range (km)
Doppler Factor

Next 0 passes for location: London (51.5072 / 0.1276)

No passes found over London.
EUTELSAT HOTBIRD 13F